• In Latvia
  • List of Countries
  • For 7 days
  • Water Temperature
  • Satellite Maps
  • Weather Map
  • Weather Widgets
  • user-avatar
    Login

    Hourly Weather Kerns

    Today, 18 August, Friday

    Time Temperature Precipitation Wind Pressure Humidity
    00:00 +20°C° 0 mm 1 mps 760 mmHg 93%
    01:00 +18°C° 0 mm 2 mps 760 mmHg 91%
    02:00 +18°C° 0 mm 2 mps 760 mmHg 90%
    03:00 +18°C° 0 mm 2 mps 760 mmHg 89%
    04:00 +18°C° 0 mm 2 mps 760 mmHg 88%
    05:00 +18°C° 0 mm 2 mps 760 mmHg 87%
    06:00 +18°C° 0 mm 2 mps 761 mmHg 86%
    07:00 +18°C° 0 mm 2 mps 761 mmHg 86%
    08:00 +21°C° 0 mm 2 mps 761 mmHg 74%
    09:00 +25°C° 0 mm 2 mps 762 mmHg 61%
    10:00 +29°C° 0 mm 2 mps 762 mmHg 49%
    11:00 +30°C° 0 mm 3 mps 761 mmHg 45%
    12:00 +31°C° 0 mm 3 mps 761 mmHg 41%
    13:00 +34°C° 0 mm 4 mps 761 mmHg 36%
    14:00 +33°C° 0 mm 4 mps 760 mmHg 38%
    15:00 +33°C° 0 mm 4 mps 760 mmHg 40%
    16:00 +32°C° 0 mm 4 mps 760 mmHg 41%
    17:00 +28°C° 0 mm 4 mps 760 mmHg 55%
    18:00 +25°C° 0 mm 3 mps 760 mmHg 69%
    19:00 +21°C° 0 mm 3 mps 761 mmHg 83%
    20:00 +21°C° 0 mm 3 mps 761 mmHg 81%
    21:00 +20°C° 0 mm 3 mps 761 mmHg 79%
    22:00 +20°C° 0 mm 2 mps 762 mmHg 76%
    23:00 +20°C° 0 mm 2 mps 762 mmHg 73%

    Tomorrow, 19 August, Saturday

    Time Temperature Precipitation Wind Pressure Humidity
    00:00 +20°C° 0 mm 3 mps 762 mmHg 70%
    01:00 +20°C° 0 mm 3 mps 762 mmHg 67%
    02:00 +20°C° 0 mm 3 mps 761 mmHg 70%
    03:00 +19°C° 0 mm 3 mps 761 mmHg 74%
    04:00 +19°C° 0 mm 4 mps 761 mmHg 77%
    05:00 +19°C° 0 mm 4 mps 762 mmHg 80%
    06:00 +19°C° 0 mm 4 mps 762 mmHg 83%
    07:00 +19°C° 0 mm 4 mps 762 mmHg 86%
    08:00 +22°C° 0 mm 4 mps 763 mmHg 75%
    09:00 +26°C° 0 mm 5 mps 763 mmHg 64%
    10:00 +29°C° 0 mm 5 mps 763 mmHg 54%
    11:00 +30°C° 0 mm 5 mps 763 mmHg 50%
    12:00 +32°C° 0 mm 6 mps 762 mmHg 46%
    13:00 +33°C° 0 mm 6 mps 762 mmHg 42%
    14:00 +32°C° 0 mm 6 mps 761 mmHg 45%
    15:00 +30°C° 0 mm 6 mps 761 mmHg 48%
    16:00 +30°C° 0 mm 6 mps 760 mmHg 51%
    17:00 +27°C° 0 mm 6 mps 761 mmHg 63%
    18:00 +25°C° 0 mm 5 mps 761 mmHg 75%
    19:00 +22°C° 0 mm 5 mps 762 mmHg 87%
    20:00 +21°C° 0 mm 5 mps 762 mmHg 90%
    21:00 +21°C° 0 mm 4 mps 763 mmHg 92%
    22:00 +20°C° 0 mm 4 mps 763 mmHg 95%
    23:00 +20°C° 0 mm 4 mps 763 mmHg 95%

    Day after tomorrow, 20 August, Sunday

    Time Temperature Precipitation Wind Pressure Humidity
    00:00 +19°C° 0 mm 4 mps 763 mmHg 95%
    01:00 +19°C° 0 mm 5 mps 763 mmHg 95%
    02:00 +19°C° 0 mm 5 mps 762 mmHg 94%
    03:00 +19°C° 0 mm 5 mps 762 mmHg 94%
    04:00 +19°C° 0 mm 5 mps 762 mmHg 93%
    05:00 +17°C° 0 mm 5 mps 762 mmHg 92%
    06:00 +17°C° 0 mm 5 mps 763 mmHg 92%
    07:00 +17°C° 0 mm 5 mps 763 mmHg 91%
    08:00 +20°C° 0 mm 6 mps 763 mmHg 77%
    09:00 +22°C° 0 mm 6 mps 764 mmHg 63%
    10:00 +26°C° 0 mm 7 mps 764 mmHg 49%
    11:00 +27°C° 0 mm 7 mps 763 mmHg 46%
    12:00 +27°C° 0 mm 7 mps 762 mmHg 44%
    13:00 +28°C° 0 mm 7 mps 762 mmHg 41%
    14:00 +28°C° 0 mm 7 mps 761 mmHg 45%
    15:00 +27°C° 0 mm 7 mps 761 mmHg 48%
    16:00 +27°C° 0 mm 6 mps 761 mmHg 52%
    17:00 +23°C° 0 mm 6 mps 761 mmHg 62%
    18:00 +21°C° 0 mm 5 mps 762 mmHg 72%
    19:00 +19°C° 0 mm 5 mps 762 mmHg 82%
    20:00 +18°C° 0 mm 4 mps 762 mmHg 84%
    21:00 +17°C° 0 mm 4 mps 763 mmHg 86%
    22:00 +15°C° 0 mm 4 mps 763 mmHg 89%
    23:00 +15°C° 0 mm 4 mps 763 mmHg 87%

    21 August, Monday

    Time Temperature Precipitation Wind Pressure Humidity
    00:00 +14°C° 0 mm 4 mps 762 mmHg 85%
    01:00 +14°C° 0 mm 4 mps 762 mmHg 83%
    02:00 +14°C° 0 mm 4 mps 762 mmHg 84%
    03:00 +14°C° 0 mm 4 mps 762 mmHg 85%
    04:00 +14°C° 0 mm 4 mps 761 mmHg 85%
    05:00 +14°C° 0 mm 4 mps 762 mmHg 87%
    06:00 +14°C° 0 mm 4 mps 762 mmHg 89%
    07:00 +14°C° 0 mm 4 mps 763 mmHg 91%
    08:00 +17°C° 0 mm 5 mps 763 mmHg 80%
    09:00 +21°C° 0 mm 5 mps 763 mmHg 69%
    10:00 +25°C° 0 mm 5 mps 763 mmHg 58%
    11:00 +26°C° 0 mm 5 mps 763 mmHg 54%
    12:00 +28°C° 0 mm 5 mps 762 mmHg 51%
    13:00 +29°C° 0 mm 5 mps 761 mmHg 47%
    14:00 +28°C° 0 mm 5 mps 761 mmHg 49%
    15:00 +28°C° 0 mm 5 mps 761 mmHg 51%
    16:00 +28°C° 0 mm 5 mps 760 mmHg 53%
    17:00 +25°C° 0 mm 4 mps 761 mmHg 64%
    18:00 +22°C° 0 mm 4 mps 761 mmHg 75%
    19:00 +19°C° 0 mm 4 mps 762 mmHg 86%
    20:00 +19°C° 0 mm 4 mps 762 mmHg 88%
    21:00 +18°C° 0 mm 3 mps 763 mmHg 91%
    22:00 +17°C° 0 mm 3 mps 763 mmHg 94%
    23:00 +17°C° 0 mm 3 mps 763 mmHg 94%

    22 August, Tuesday

    Time Temperature Precipitation Wind Pressure Humidity
    00:00 +17°C° 0 mm 3 mps 762 mmHg 95%
    01:00 +17°C° 0 mm 3 mps 762 mmHg 95%
    02:00 +17°C° 0 mm 3 mps 762 mmHg 96%
    03:00 +17°C° 0 mm 3 mps 762 mmHg 96%
    04:00 +17°C° 0 mm 3 mps 761 mmHg 97%
    05:00 +17°C° 0 mm 3 mps 762 mmHg 97%
    06:00 +18°C° 0 mm 3 mps 762 mmHg 98%
    07:00 +18°C° 0 mm 3 mps 763 mmHg 98%
    08:00 +21°C° 0 mm 3 mps 763 mmHg 86%
    09:00 +23°C° 0 mm 4 mps 763 mmHg 75%
    10:00 +27°C° 0 mm 4 mps 763 mmHg 63%
    11:00 +28°C° 0 mm 4 mps 762 mmHg 59%
    12:00 +29°C° 0 mm 4 mps 762 mmHg 56%
    13:00 +30°C° 0 mm 4 mps 761 mmHg 52%
    14:00 +30°C° 0 mm 4 mps 761 mmHg 54%
    15:00 +29°C° 0 mm 4 mps 761 mmHg 56%
    16:00 +29°C° 0 mm 4 mps 761 mmHg 58%
    17:00 +27°C° 0 mm 4 mps 761 mmHg 69%
    18:00 +25°C° 0 mm 4 mps 762 mmHg 80%
    19:00 +21°C° 0 mm 4 mps 763 mmHg 92%
    20:00 +21°C° 0 mm 4 mps 763 mmHg 93%
    21:00 +21°C° 0 mm 4 mps 763 mmHg 94%
    22:00 +20°C° 0 mm 4 mps 764 mmHg 96%
    23:00 +20°C° 0 mm 3 mps 763 mmHg 96%

    23 August, Wednesday

    Time Temperature Precipitation Wind Pressure Humidity
    00:00 +20°C° 0 mm 3 mps 763 mmHg 96%
    01:00 +20°C° 0 mm 3 mps 763 mmHg 97%
    02:00 +20°C° 0 mm 3 mps 763 mmHg 96%
    03:00 +20°C° 0 mm 3 mps 762 mmHg 96%
    04:00 +21°C° 0 mm 3 mps 762 mmHg 96%
    05:00 +21°C° 0 mm 3 mps 763 mmHg 96%
    06:00 +21°C° 0 mm 3 mps 763 mmHg 95%
    07:00 +21°C° 0 mm 3 mps 763 mmHg 94%
    08:00 +23°C° 0 mm 4 mps 763 mmHg 84%
    09:00 +26°C° 0 mm 4 mps 763 mmHg 75%
    10:00 +28°C° 0 mm 4 mps 763 mmHg 65%
    11:00 +29°C° 0 mm 4 mps 763 mmHg 61%
    12:00 +30°C° 0 mm 5 mps 762 mmHg 57%
    13:00 +32°C° 0 mm 5 mps 762 mmHg 52%
    14:00 +30°C° 0 mm 5 mps 761 mmHg 54%
    15:00 +30°C° 0 mm 5 mps 761 mmHg 55%
    16:00 +29°C° 0 mm 5 mps 761 mmHg 57%
    17:00 +27°C° 0 mm 4 mps 761 mmHg 67%
    18:00 +25°C° 0 mm 4 mps 762 mmHg 77%
    19:00 +22°C° 0 mm 4 mps 762 mmHg 87%
    20:00 +21°C° 0 mm 4 mps 763 mmHg 90%
    21:00 +21°C° 0 mm 4 mps 763 mmHg 92%
    22:00 +20°C° 0 mm 4 mps 763 mmHg 94%
    23:00 +20°C° 0 mm 4 mps 763 mmHg 95%
    Show more